{"data":{"norad_id":50822,"intl_designator":"2022-001V","name":"STARLINK-3343","alt_names":[],"object_type":"PAYLOAD","status":"ACTIVE","operator":null,"country":"US","launch_date":"2022-01-06","launch_site_code":"AFETR","launch_vehicle":null,"mission":null,"orbit_class":"UNKNOWN","rcs_meters":null,"size_class":null,"mass_kg":null,"dimensions":null,"purposes":["comms"],"wikipedia_slug":null,"has_3d_model":false,"image_url":null,"decayed_at":null,"tle_current":{"epoch":"2026-05-25T02:49:55.988832Z","epoch_age_seconds":64160,"freshness":"FRESH","line1":"1 50822U 22001V   26145.11800913 -.00000187  00000+0  63384-5 0  9998","line2":"2 50822  53.2137 186.0213 0001101  76.4710 283.6405 15.08836821241949","mean_motion":15.08836821,"eccentricity":0.0001101,"inclination_deg":53.2137,"raan_deg":186.0213,"arg_perigee_deg":76.471,"mean_anomaly_deg":283.6405,"bstar":6.3384e-6,"rev_number":24194,"period_min":95.437755757155,"perigee_km":538.99144621173,"apogee_km":540.51476561305,"semimajor_km":6917.8901059124,"source":"CELESTRAK","updated_at":"2026-05-25T13:38:16.878004Z"}}}